Location: Newark
(11.5710°N, 104.9241°E)
Time: 19:26:07
(UTC+00:00)

STRAND 1 - Visible Passes

Search period start: 10 April 2020 00:00
Search period end: 20 April 2020 00:00
Orbit: 767 x 782 km, 98.5° (Epoch: 10 April)

Date Brightness Start Highest point End Pass type
(mag) Time Alt. Az. Time Alt. Az. Time Alt. Az.
10 Apr ? 11:32:15 10° NE 11:36:32 27° E 11:40:48 10° SSE visible
10 Apr ? 13:11:58 10° NNW 13:15:25 19° WNW 13:18:52 10° WSW visible
11 Apr ? 12:36:42 10° N 12:41:34 47° WNW 12:46:26 10° SSW visible
12 Apr ? 12:02:35 10° NNE 12:07:38 66° ESE 12:12:41 10° S visible
13 Apr ? 11:29:31 10° NE 11:33:39 25° E 11:37:49 10° SSE visible
13 Apr ? 13:08:54 10° NNW 13:12:33 20° WNW 13:16:13 10° WSW visible
14 Apr ? 12:33:47 10° N 12:38:42 51° WNW 12:43:38 10° SSW visible
15 Apr ? 11:59:45 10° NNE 12:04:45 61° ESE 12:09:48 10° S visible
16 Apr ? 11:26:46 10° NE 11:30:47 23° E 11:34:48 10° SSE visible
16 Apr ? 13:05:52 10° NNW 13:09:42 22° WNW 13:13:32 10° SW visible
17 Apr ? 12:30:52 10° N 12:35:50 55° WNW 12:40:49 10° SSW visible
18 Apr ? 11:56:54 10° NNE 12:01:54 56° ESE 12:06:54 10° S visible
19 Apr ? 13:02:51 10° NNW 13:06:50 23° WNW 13:10:50 10° SW visible
